星链-32722 (STARLINK-32722)

导读

STARLINK-32722是美国SpaceX星链互联网星座的一颗卫星,于2024年12月29日发射入轨,属于星链项目大规模组网部署的组成部分。该卫星依托星链系统低轨卫星星座架构,旨在为全球提供高速低延迟的宽带互联网服务,尤其覆盖偏远地区与移动场景,是美国推进低轨卫星通信布局的一环。

Basic Information
目录编号:
62450
目录名称:
STARLINK-32722
国际标识:
2024-251U
轨道中心:
EARTH
卫星名称:
星链-32722
卫星全名:
星链-32722 (STARLINK-32722)
卫星状态:
在轨 (已飞行621 天)
发射日期:
2024-12-29 UTC
国别 :
美国 (US)
星等 :
--
This satellite is enrolled in the Space Conjunction Data Service (SCDS) and the current flight risk assessment level is: High Risk
Orbit Information
数据来源 国际轨道数据
星历时间: 2026-09-11T13:55:30+0800
9小时前
查看轨道信息
半长轴: 6840.809km
偏心率: 0.0000817
轨道倾角: 53.159°
近地点辐角 91.623°
升交点赤经 190.881°
平近点角 268.487°
近地点: 462.113km
远地点: 463.231km
周期: 93.847分钟
每日圈数: 15.344107
Detailed Information
固有亮度:
5
最大亮度:
2.5
卫星平台:
Starlink V1.0
覆盖范围:
全球
运营商:
太空探索技术公司
运营商所在国:
美国
制造商(研发单位):
太空探索技术公司
制造商所在国:
美国
使用方式:
暂无
Satellite Introduction
Starlink 计划是 SpaceX 推出的全球卫星互联网项目,通过发射低轨道卫星,为全球尤其是偏远地区提供高速、低延迟的互联网服务。自 2019 年起,Starlink 已部署数千颗卫星,旨在缩小全球数字鸿沟,推动互联网普及。该项目还为军事、航空等行业提供通信支持,带来广泛经济效益。
2D Orbit Map
3D Orbit Map
Orbit Altitude Analysis Chart
Orbit Inclination Analysis Chart
Orbit Comprehensive Analysis Chart
View Comprehensive Chart
Conjunction Data List
Event ID Objects TCA Miss Dist (km) Collision Risk Probability Collision Risk Index (CRI) Action
CDM_260912-003005-846906-245022
2026-09-12T
00:30:53+0000
0.340 km
远距离
4.210231E-4 高风险 0.87
CDM_260912-194606-245006-823321
2026-09-12T
19:46:11+0000
0.742 km
远距离
3.345372E-5 中风险 0.65
CDM_260913-082305-417706-245021
2026-09-13T
08:23:57+0000
0.906 km
远距离
1.727503E-5 中风险 0.6
CDM_260913-152605-417706-245021
2026-09-13T
15:26:01+0000
1.040 km
极远距离
1.075258E-5 中风险 0.56
CDM_260913-042206-245006-823321
2026-09-13T
04:22:01+0000
1.261 km
极远距离
5.540883E-6 低风险 0.5
CDM_260912-134504-857506-245021
2026-09-12T
13:45:49+0000
1.589 km
极远距离
4.351535E-6 低风险 0.48
CDM_260913-055506-245006-823321
2026-09-13T
05:55:48+0000
1.378 km
极远距离
4.134488E-6 低风险 0.47
CDM_260912-211906-245006-823321
2026-09-12T
21:19:59+0000
1.380 km
极远距离
4.11791E-6 低风险 0.47
CDM_260912-034605-318006-245021
2026-09-12T
03:46:27+0000
2.391 km
极远距离
1.698651E-6 低风险 0.4
CDM_260913-135205-417706-245021
2026-09-13T
13:52:14+0000
2.077 km
极远距离
1.308881E-6 低风险 0.37
Miss Distance Evolution Trend with All Objects
Collision Probability Evolution Trend with All Objects